{"data":{"norad_id":67369,"epoch":"2026-05-24T22:45:49.110048Z","epoch_age_seconds":75504,"freshness":"FRESH","line1":"1 67369U 26004G   26144.94848507  .00001212  00000+0  13942-3 0  9992","line2":"2 67369  97.7981 143.7855 0006160 209.8187 150.2679 14.87578195 19831","mean_motion":14.87578195,"eccentricity":0.000616,"inclination_deg":97.7981,"raan_deg":143.7855,"arg_perigee_deg":209.8187,"mean_anomaly_deg":150.2679,"bstar":0.00013942,"rev_number":1983,"period_min":96.801634014271,"perigee_km":601.20313962715,"apogee_km":609.80698664894,"semimajor_km":6983.642063138,"source":"CELESTRAK","updated_at":"2026-05-25T13:38:06.928070Z"}}